Location: Carrington
(40.8686°N, 81.5060°W)
Time: 11:47:37
(UTC+00:00)

Envisat - Visible Passes

Search period start: 04 October 2024 00:00
Search period end: 14 October 2024 00:00
Orbit: 762 x 764 km, 98.3° (Epoch: 04 October)

Date Brightness Start Highest point End Pass type
(mag) Time Alt. Az. Time Alt. Az. Time Alt. Az.
04 Oct 3.9 08:51:46 10° N 08:54:56 38° N 08:54:56 38° N visible
05 Oct 4.7 08:14:21 10° NNE 08:16:53 28° NE 08:16:53 28° NE visible
05 Oct 4.5 09:54:22 10° NNW 09:57:01 18° NW 09:57:01 18° NW visible
06 Oct 5.7 07:37:38 10° NE 07:38:50 15° NE 07:38:50 15° NE visible
06 Oct 4.1 09:16:00 10° N 09:18:59 30° NNW 09:18:59 30° NNW visible
07 Oct 4.4 08:38:16 10° NNE 08:40:55 32° NNE 08:40:55 32° NNE visible
07 Oct 4.9 10:19:52 10° NW 10:21:05 11° NW 10:21:05 11° NW visible
08 Oct 5.2 08:01:04 10° NNE 08:02:52 21° NE 08:02:52 21° NE visible
08 Oct 4.5 09:40:28 10° NNW 09:43:00 21° NW 09:43:00 21° NW visible
09 Oct 6.0 07:24:42 10° NE 07:24:49 10° NE 07:24:49 10° NE visible
09 Oct 4.3 09:02:22 10° N 09:04:58 29° N 09:04:58 29° N visible
10 Oct 4.8 08:24:49 10° NNE 08:26:54 25° NNE 08:26:54 25° NNE visible
10 Oct 4.8 10:05:23 10° NNW 10:07:02 14° NW 10:07:02 14° NW visible
11 Oct 5.7 07:47:49 10° NE 07:48:50 15° NE 07:48:50 15° NE visible
11 Oct 4.5 09:26:41 10° N 09:28:59 23° NNW 09:28:59 23° NNW visible
12 Oct 4.6 08:48:47 10° N 08:50:55 25° N 08:50:55 25° N visible
13 Oct 5.3 08:11:24 10° NNE 08:12:51 19° NNE 08:12:51 19° NNE visible
13 Oct 4.8 09:51:17 10° NNW 09:52:59 16° NW 09:52:59 16° NW visible
